AAL971 KLAX-KDFW

Flight info

Callsign AAL971
Flight time 2h 26m
Altitude 41000
Route DOTSS2 CNERY BLH J169 TFD J50 SSO J4 INK GEEKY BOOVE7
Aircraft B772/H-SDE2E3FGHIJ5LORVWXY/LB1D1

Departure

Time 2026-04-26 03:07
Airport Los Angeles International Airport (KLAX)

Arrival

Time 2026-04-26 05:33
Airport Dallas Fort Worth International Airport (KDFW)
Time Latitude Longitude Altitude Speed Heading
2026-04-26 02:40 33.93944 -118.40638 97 ft 0 kts 344°
2026-04-26 02:57 33.93943 -118.40638 97 ft 1 kts 344°
2026-04-26 02:57 33.93930 -118.40634 97 ft 3 kts 357°
2026-04-26 02:58 33.93911 -118.40637 96 ft 3 kts 31°
2026-04-26 02:58 33.93898 -118.40651 95 ft 3 kts 68°
2026-04-26 02:58 33.93894 -118.40664 99 ft 0 kts 83°
2026-04-26 03:01 33.93898 -118.40631 101 ft 12 kts 83°
2026-04-26 03:01 33.93893 -118.40544 101 ft 10 kts 128°
2026-04-26 03:02 33.93833 -118.40507 101 ft 10 kts 134°
2026-04-26 03:02 33.93834 -118.40429 100 ft 10 kts 79°
2026-04-26 03:02 33.93842 -118.40346 100 ft 12 kts 83°
2026-04-26 03:02 33.93852 -118.40241 102 ft 13 kts 83°
2026-04-26 03:03 33.93863 -118.40135 103 ft 13 kts 82°
2026-04-26 03:03 33.93875 -118.40025 101 ft 14 kts 82°
2026-04-26 03:03 33.93888 -118.39907 101 ft 14 kts 83°
2026-04-26 03:03 33.93899 -118.39789 102 ft 14 kts 83°
2026-04-26 03:04 33.93912 -118.39655 101 ft 19 kts 83°
2026-04-26 03:04 33.93931 -118.39476 99 ft 22 kts 82°
2026-04-26 03:04 33.93950 -118.39294 98 ft 22 kts 83°
2026-04-26 03:04 33.93964 -118.39166 100 ft 15 kts 83°
2026-04-26 03:05 33.93974 -118.39060 98 ft 6 kts 89°
2026-04-26 03:05 33.93973 -118.39048 98 ft 1 kts 93°
2026-04-26 03:05 33.93965 -118.39003 101 ft 12 kts 118°
2026-04-26 03:05 33.93900 -118.38997 100 ft 10 kts 208°
2026-04-26 03:06 33.93881 -118.39042 100 ft 0 kts 260°
2026-04-26 03:07 33.93866 -118.39165 102 ft 42 kts 263°
2026-04-26 03:07 33.93796 -118.39845 106 ft 119 kts 263°
2026-04-26 03:07 33.93683 -118.41023 487 ft 148 kts 261°
2026-04-26 03:07 33.93560 -118.42210 1520 ft 137 kts 263°
2026-04-26 03:08 33.93455 -118.43334 2215 ft 132 kts 264°
2026-04-26 03:08 33.93358 -118.44346 2801 ft 116 kts 265°
2026-04-26 03:08 33.93258 -118.45380 2967 ft 128 kts 264°
2026-04-26 03:08 33.92984 -118.46451 3120 ft 146 kts 232°
2026-04-26 03:09 33.92162 -118.47270 3332 ft 162 kts 227°
2026-04-26 03:09 33.91394 -118.48375 3556 ft 184 kts 234°
2026-04-26 03:09 33.90547 -118.49645 3766 ft 211 kts 234°
2026-04-26 03:09 33.90022 -118.50444 3878 ft 228 kts 234°
2026-04-26 03:10 33.88988 -118.51982 4302 ft 247 kts 233°
2026-04-26 03:10 33.87867 -118.53612 5099 ft 252 kts 233°
2026-04-26 03:10 33.86706 -118.55137 5761 ft 256 kts 220°
2026-04-26 03:10 33.85000 -118.55958 6462 ft 271 kts 188°
2026-04-26 03:11 33.83144 -118.55761 7196 ft 275 kts 171°
2026-04-26 03:11 33.81235 -118.55233 7893 ft 280 kts 171°
2026-04-26 03:11 33.79361 -118.54713 8687 ft 281 kts 171°
2026-04-26 03:11 33.77452 -118.54186 9508 ft 282 kts 172°
2026-04-26 03:12 33.75529 -118.53661 10231 ft 285 kts 172°
2026-04-26 03:12 33.73521 -118.53122 10543 ft 306 kts 172°
2026-04-26 03:12 33.71433 -118.52462 10957 ft 319 kts 162°
2026-04-26 03:12 33.69600 -118.50829 11581 ft 342 kts 132°
2026-04-26 03:13 33.68495 -118.48280 12507 ft 348 kts 113°
2026-04-26 03:13 33.67698 -118.45484 13265 ft 359 kts 112°
2026-04-26 03:13 33.66887 -118.42618 14240 ft 364 kts 113°
2026-04-26 03:13 33.66054 -118.39736 15241 ft 367 kts 113°
2026-04-26 03:14 33.65197 -118.36827 16168 ft 372 kts 114°
2026-04-26 03:14 33.64415 -118.33856 16963 ft 378 kts 105°
2026-04-26 03:14 33.64252 -118.30650 17597 ft 392 kts 92°
2026-04-26 03:14 33.64311 -118.27350 18413 ft 399 kts 92°
2026-04-26 03:15 33.64371 -118.23998 19190 ft 404 kts 93°
2026-04-26 03:15 33.64415 -118.20602 19935 ft 410 kts 94°
2026-04-26 03:15 33.64441 -118.17156 20649 ft 417 kts 94°
2026-04-26 03:15 33.64452 -118.13648 21353 ft 424 kts 95°
2026-04-26 03:16 33.64455 -118.10083 22099 ft 430 kts 95°
2026-04-26 03:16 33.64453 -118.06464 22829 ft 437 kts 96°
2026-04-26 03:16 33.64449 -118.02790 23538 ft 444 kts 96°
2026-04-26 03:16 33.64443 -117.99059 24142 ft 450 kts 96°
2026-04-26 03:17 33.64438 -117.95278 24806 ft 455 kts 96°
2026-04-26 03:17 33.64433 -117.91466 25411 ft 461 kts 96°
2026-04-26 03:17 33.64426 -117.87588 26007 ft 467 kts 96°
2026-04-26 03:17 33.64417 -117.83672 26638 ft 472 kts 96°
2026-04-26 03:18 33.64370 -117.79727 27286 ft 473 kts 101°
2026-04-26 03:18 33.63801 -117.75882 27875 ft 465 kts 114°
2026-04-26 03:18 33.62859 -117.72176 28448 ft 467 kts 116°
2026-04-26 03:18 33.61845 -117.68457 29028 ft 471 kts 116°
2026-04-26 03:19 33.60826 -117.64698 29622 ft 476 kts 116°
2026-04-26 03:19 33.59826 -117.60888 30168 ft 482 kts 115°
2026-04-26 03:19 33.58843 -117.57026 30628 ft 486 kts 115°
2026-04-26 03:19 33.57869 -117.53117 31088 ft 491 kts 115°
2026-04-26 03:20 33.56896 -117.49175 31525 ft 495 kts 115°
2026-04-26 03:20 33.55917 -117.45198 31920 ft 500 kts 115°
2026-04-26 03:20 33.54926 -117.41190 32336 ft 503 kts 115°
2026-04-26 03:20 33.53924 -117.37150 32686 ft 508 kts 115°
2026-04-26 03:21 33.52907 -117.33067 32989 ft 514 kts 116°
2026-04-26 03:21 33.51879 -117.28943 33361 ft 518 kts 115°
2026-04-26 03:21 33.50845 -117.24783 33787 ft 522 kts 114°
2026-04-26 03:21 33.50135 -117.20458 34118 ft 539 kts 102°
2026-04-26 03:22 33.49998 -117.15933 34412 ft 547 kts 96°
2026-04-26 03:22 33.50034 -117.11363 34788 ft 550 kts 95°
2026-04-26 03:22 33.50103 -117.06772 35123 ft 552 kts 95°
2026-04-26 03:22 33.50144 -117.02162 35432 ft 554 kts 95°
2026-04-26 03:23 33.50138 -116.97548 35711 ft 556 kts 96°
2026-04-26 03:23 33.50091 -116.92896 36014 ft 558 kts 96°
2026-04-26 03:23 33.50018 -116.88250 36397 ft 557 kts 96°
2026-04-26 03:23 33.49938 -116.83628 36856 ft 552 kts 96°
2026-04-26 03:24 33.49857 -116.79050 37447 ft 548 kts 96°
2026-04-26 03:24 33.49777 -116.74486 37825 ft 548 kts 96°
2026-04-26 03:24 33.49698 -116.69924 38124 ft 549 kts 96°
2026-04-26 03:24 33.49619 -116.65350 38443 ft 549 kts 95°
2026-04-26 03:25 33.49542 -116.60778 38739 ft 548 kts 95°
2026-04-26 03:25 33.49463 -116.56209 38965 ft 550 kts 96°
2026-04-26 03:25 33.49381 -116.51619 39121 ft 553 kts 96°
2026-04-26 03:25 33.49298 -116.47011 39366 ft 553 kts 96°
2026-04-26 03:26 33.49214 -116.42418 39690 ft 552 kts 96°
2026-04-26 03:26 33.49135 -116.37830 39982 ft 550 kts 96°
2026-04-26 03:26 33.49065 -116.33240 40241 ft 551 kts 96°
2026-04-26 03:26 33.49001 -116.28651 40371 ft 552 kts 96°
2026-04-26 03:27 33.48936 -116.24058 40644 ft 552 kts 96°
2026-04-26 03:27 33.48865 -116.19444 40710 ft 556 kts 96°
2026-04-26 03:27 33.48716 -116.10145 40815 ft 560 kts 96°
2026-04-26 03:28 33.48832 -116.02402 40806 ft 562 kts 84°
2026-04-26 03:28 33.49849 -115.97888 40826 ft 562 kts 71°
2026-04-26 03:28 33.51223 -115.93502 40810 ft 562 kts 69°
2026-04-26 03:29 33.54039 -115.84754 40811 ft 563 kts 70°
2026-04-26 03:29 33.56686 -115.75898 40804 ft 565 kts 71°
2026-04-26 03:30 33.59253 -115.66981 40795 ft 566 kts 72°
2026-04-26 03:30 33.61690 -115.58018 40784 ft 562 kts 81°
2026-04-26 03:31 33.62044 -115.53404 40781 ft 551 kts 96°
2026-04-26 03:31 33.61890 -115.48828 40795 ft 548 kts 98°
2026-04-26 03:31 33.61430 -115.39695 40793 ft 549 kts 98°
2026-04-26 03:32 33.61084 -115.30529 40801 ft 551 kts 97°
2026-04-26 03:32 33.60846 -115.21315 40789 ft 553 kts 97°
2026-04-26 03:33 33.60620 -115.12086 40772 ft 554 kts 97°
2026-04-26 03:33 33.60373 -115.02853 40781 ft 554 kts 97°
2026-04-26 03:34 33.60110 -114.93609 40773 ft 554 kts 97°
2026-04-26 03:34 33.59843 -114.84362 40788 ft 556 kts 97°
2026-04-26 03:35 33.59537 -114.75092 40788 ft 555 kts 100°
2026-04-26 03:35 33.58774 -114.65914 40791 ft 553 kts 103°
2026-04-26 03:36 33.57895 -114.56753 40786 ft 553 kts 103°
2026-04-26 03:36 33.57038 -114.47591 40779 ft 553 kts 102°
2026-04-26 03:37 33.56212 -114.38487 40790 ft 553 kts 102°
2026-04-26 03:37 33.55373 -114.29263 40774 ft 552 kts 102°
2026-04-26 03:38 33.54529 -114.20118 40782 ft 552 kts 103°
2026-04-26 03:38 33.53678 -114.10981 40775 ft 552 kts 103°
2026-04-26 03:39 33.52826 -114.01893 40770 ft 553 kts 103°
2026-04-26 03:39 33.51963 -113.92739 40812 ft 553 kts 103°
2026-04-26 03:40 33.51092 -113.83579 40848 ft 553 kts 103°
2026-04-26 03:40 33.50220 -113.74411 40882 ft 554 kts 103°
2026-04-26 03:41 33.49345 -113.65247 40911 ft 554 kts 103°
2026-04-26 03:41 33.48463 -113.56083 40917 ft 554 kts 103°
2026-04-26 03:42 33.47574 -113.46905 40885 ft 555 kts 103°
2026-04-26 03:42 33.47122 -113.42311 40740 ft 554 kts 104°
2026-04-26 03:42 33.46452 -113.37801 40749 ft 547 kts 111°
2026-04-26 03:43 33.44214 -113.29204 40755 ft 535 kts 121°
2026-04-26 03:43 33.41090 -113.21217 40768 ft 529 kts 125°
2026-04-26 03:44 33.37874 -113.13278 40764 ft 531 kts 125°
2026-04-26 03:44 33.34681 -113.05297 40757 ft 533 kts 125°
2026-04-26 03:45 33.31502 -112.97283 40775 ft 534 kts 124°
2026-04-26 03:45 33.28319 -112.89265 40775 ft 534 kts 125°
2026-04-26 03:46 33.25126 -112.81247 40788 ft 535 kts 125°
2026-04-26 03:47 33.20317 -112.69220 40794 ft 536 kts 125°
2026-04-26 03:47 33.17099 -112.61197 40775 ft 536 kts 125°
2026-04-26 03:48 33.13875 -112.53173 40764 ft 536 kts 125°
2026-04-26 03:48 33.10651 -112.45167 40745 ft 535 kts 126°
2026-04-26 03:49 33.07423 -112.37174 40756 ft 535 kts 126°
2026-04-26 03:49 33.04208 -112.29233 40759 ft 536 kts 126°
2026-04-26 03:50 33.00945 -112.21189 40760 ft 536 kts 126°
2026-04-26 03:50 32.97717 -112.13247 40781 ft 536 kts 126°
2026-04-26 03:51 32.94465 -112.05259 40788 ft 536 kts 126°
2026-04-26 03:51 32.91205 -111.97271 40818 ft 537 kts 126°
2026-04-26 03:52 32.88172 -111.89083 40830 ft 547 kts 118°
2026-04-26 03:52 32.86147 -111.80253 40845 ft 556 kts 111°
2026-04-26 03:53 32.84285 -111.71338 40830 ft 555 kts 112°
2026-04-26 03:53 32.82319 -111.62472 40816 ft 554 kts 112°
2026-04-26 03:54 32.80320 -111.53630 40751 ft 554 kts 113°
2026-04-26 03:54 32.78317 -111.44784 40791 ft 554 kts 113°
2026-04-26 03:55 32.76312 -111.35937 40810 ft 555 kts 113°
2026-04-26 03:55 32.74313 -111.27137 40824 ft 555 kts 113°
2026-04-26 03:56 32.72294 -111.18283 40820 ft 556 kts 113°
2026-04-26 03:56 32.70268 -111.09426 40796 ft 556 kts 112°
2026-04-26 03:57 32.68238 -111.00585 40793 ft 555 kts 113°
2026-04-26 03:57 32.66201 -110.91746 40761 ft 555 kts 113°
2026-04-26 03:58 32.64157 -110.82909 40784 ft 556 kts 113°
2026-04-26 03:58 32.62105 -110.74059 40769 ft 556 kts 112°
2026-04-26 03:59 32.60050 -110.65223 40784 ft 556 kts 112°
2026-04-26 03:59 32.57987 -110.56388 40791 ft 556 kts 112°
2026-04-26 04:00 32.55917 -110.47552 40807 ft 557 kts 113°
2026-04-26 04:00 32.53839 -110.38694 40796 ft 559 kts 112°
2026-04-26 04:01 32.51756 -110.29820 40778 ft 559 kts 113°
2026-04-26 04:01 32.49664 -110.20946 40792 ft 559 kts 113°
2026-04-26 04:02 32.47565 -110.12081 40796 ft 559 kts 112°
2026-04-26 04:02 32.45459 -110.03214 40803 ft 559 kts 112°
2026-04-26 04:03 32.43347 -109.94351 40806 ft 559 kts 113°
2026-04-26 04:03 32.41229 -109.85493 40809 ft 559 kts 113°
2026-04-26 04:04 32.39105 -109.76638 40779 ft 559 kts 112°
2026-04-26 04:04 32.36975 -109.67786 40746 ft 559 kts 113°
2026-04-26 04:05 32.34841 -109.58949 40774 ft 559 kts 113°
2026-04-26 04:05 32.32713 -109.50168 40784 ft 560 kts 113°
2026-04-26 04:06 32.30562 -109.41317 40776 ft 560 kts 113°
2026-04-26 04:06 32.28404 -109.32458 40776 ft 561 kts 113°
2026-04-26 04:07 32.26535 -109.23481 40783 ft 568 kts 104°
2026-04-26 04:07 32.25626 -109.14177 40792 ft 571 kts 101°
2026-04-26 04:08 32.24820 -109.04833 40777 ft 571 kts 100°
2026-04-26 04:08 32.23968 -108.95505 40779 ft 571 kts 101°
2026-04-26 04:09 32.23068 -108.86183 40765 ft 571 kts 101°
2026-04-26 04:09 32.22152 -108.76874 40777 ft 571 kts 101°
2026-04-26 04:09 32.21693 -108.72224 40968 ft 571 kts 101°
2026-04-26 04:10 32.21234 -108.67570 40969 ft 571 kts 101°
2026-04-26 04:10 32.20313 -108.58268 40932 ft 570 kts 101°
2026-04-26 04:11 32.19386 -108.48970 40898 ft 570 kts 101°
2026-04-26 04:11 32.18453 -108.39679 40824 ft 569 kts 101°
2026-04-26 04:12 32.17515 -108.30408 40784 ft 568 kts 101°
2026-04-26 04:12 32.16570 -108.21148 40787 ft 568 kts 101°
2026-04-26 04:13 32.15620 -108.11904 40794 ft 567 kts 101°
2026-04-26 04:13 32.14664 -108.02663 40788 ft 567 kts 101°
2026-04-26 04:14 32.13863 -107.94980 40787 ft 567 kts 101°
2026-04-26 04:14 32.12894 -107.85738 40778 ft 568 kts 101°
2026-04-26 04:14 32.12407 -107.81120 40930 ft 568 kts 101°
2026-04-26 04:15 32.11918 -107.76493 40937 ft 568 kts 101°
2026-04-26 04:15 32.10935 -107.67251 40935 ft 568 kts 101°
2026-04-26 04:16 32.09943 -107.58000 40889 ft 570 kts 101°
2026-04-26 04:16 32.08944 -107.48735 40848 ft 569 kts 101°
2026-04-26 04:17 32.07940 -107.39479 40773 ft 569 kts 101°
2026-04-26 04:17 32.06929 -107.30235 40747 ft 568 kts 101°
2026-04-26 04:18 32.05913 -107.21007 40769 ft 568 kts 101°
2026-04-26 04:18 32.04890 -107.11786 40794 ft 567 kts 101°
2026-04-26 04:19 32.03870 -107.02637 40827 ft 566 kts 101°
2026-04-26 04:19 32.02836 -106.93434 40830 ft 566 kts 101°
2026-04-26 04:20 32.01796 -106.84238 40870 ft 566 kts 101°
2026-04-26 04:20 32.00750 -106.75045 40941 ft 566 kts 101°
2026-04-26 04:21 31.99696 -106.65848 40942 ft 567 kts 101°
2026-04-26 04:21 31.98635 -106.56638 40928 ft 568 kts 101°
2026-04-26 04:22 31.97565 -106.47414 40879 ft 569 kts 101°
2026-04-26 04:22 31.96488 -106.38181 40904 ft 569 kts 101°
2026-04-26 04:23 31.95411 -106.28949 40897 ft 569 kts 99°
2026-04-26 04:23 31.94950 -106.19633 40862 ft 571 kts 92°
2026-04-26 04:24 31.94865 -106.10281 40806 ft 571 kts 92°
2026-04-26 04:24 31.94762 -106.00929 40762 ft 571 kts 92°
2026-04-26 04:25 31.94604 -105.91578 40725 ft 572 kts 92°
2026-04-26 04:25 31.94424 -105.82233 40734 ft 570 kts 92°
2026-04-26 04:26 31.94241 -105.72907 40720 ft 569 kts 92°
2026-04-26 04:26 31.94056 -105.63656 40726 ft 569 kts 92°
2026-04-26 04:27 31.93864 -105.54344 40707 ft 569 kts 92°
2026-04-26 04:27 31.93666 -105.45031 40705 ft 569 kts 92°
2026-04-26 04:28 31.93462 -105.35720 40695 ft 568 kts 92°
2026-04-26 04:28 31.93256 -105.26422 40690 ft 568 kts 92°
2026-04-26 04:29 31.93059 -105.17129 40708 ft 567 kts 92°
2026-04-26 04:29 31.92861 -105.07845 40708 ft 567 kts 92°
2026-04-26 04:30 31.92654 -104.98570 40720 ft 567 kts 92°
2026-04-26 04:30 31.92441 -104.89343 40735 ft 568 kts 93°
2026-04-26 04:31 31.92216 -104.79969 40713 ft 568 kts 93°
2026-04-26 04:31 31.91990 -104.70755 40721 ft 567 kts 93°
2026-04-26 04:32 31.91752 -104.61416 40722 ft 567 kts 93°
2026-04-26 04:32 31.91511 -104.52192 40726 ft 568 kts 93°
2026-04-26 04:33 31.91263 -104.42906 40719 ft 567 kts 93°
2026-04-26 04:33 31.91008 -104.33628 40720 ft 567 kts 93°
2026-04-26 04:34 31.90745 -104.24346 40727 ft 568 kts 93°
2026-04-26 04:34 31.90475 -104.15047 40714 ft 570 kts 93°
2026-04-26 04:35 31.90198 -104.05714 40695 ft 571 kts 93°
2026-04-26 04:35 31.89914 -103.96358 40710 ft 572 kts 93°
2026-04-26 04:36 31.89622 -103.86992 40687 ft 573 kts 93°
2026-04-26 04:36 31.89322 -103.77613 40692 ft 574 kts 92°
2026-04-26 04:37 31.89016 -103.68214 40689 ft 575 kts 92°
2026-04-26 04:37 31.88703 -103.58813 40694 ft 575 kts 92°
2026-04-26 04:38 31.88383 -103.49424 40684 ft 574 kts 92°
2026-04-26 04:38 31.88057 -103.40045 40689 ft 573 kts 92°
2026-04-26 04:39 31.87726 -103.30689 40691 ft 572 kts 92°
2026-04-26 04:39 31.87825 -103.21349 40682 ft 570 kts 82°
2026-04-26 04:40 31.89001 -103.12218 40692 ft 568 kts 78°
2026-04-26 04:40 31.90304 -103.03051 40695 ft 568 kts 78°
2026-04-26 04:41 31.91559 -102.93872 40683 ft 568 kts 78°
2026-04-26 04:41 31.92769 -102.84684 40690 ft 568 kts 79°
2026-04-26 04:42 31.93962 -102.75494 40695 ft 568 kts 78°
2026-04-26 04:42 31.95152 -102.66296 40695 ft 568 kts 78°
2026-04-26 04:43 31.96338 -102.57112 40713 ft 567 kts 78°
2026-04-26 04:43 31.97518 -102.47929 40767 ft 567 kts 78°
2026-04-26 04:44 31.98691 -102.38748 40806 ft 567 kts 78°
2026-04-26 04:44 31.99855 -102.29575 40848 ft 566 kts 78°
2026-04-26 04:45 32.01012 -102.20400 40855 ft 566 kts 78°
2026-04-26 04:45 32.02161 -102.11235 40854 ft 565 kts 78°
2026-04-26 04:46 32.03304 -102.02067 40862 ft 565 kts 78°
2026-04-26 04:46 32.04438 -101.92914 40819 ft 564 kts 78°
2026-04-26 04:47 32.05564 -101.83770 40765 ft 563 kts 78°
2026-04-26 04:47 32.06682 -101.74635 40756 ft 562 kts 78°
2026-04-26 04:48 32.08343 -101.60958 40808 ft 561 kts 78°
2026-04-26 04:48 32.09440 -101.51862 40823 ft 560 kts 78°
2026-04-26 04:49 32.10529 -101.42769 40815 ft 559 kts 78°
2026-04-26 04:49 32.11611 -101.33679 40785 ft 559 kts 78°
2026-04-26 04:50 32.12678 -101.24662 40684 ft 558 kts 79°
2026-04-26 04:50 32.13742 -101.15611 40665 ft 556 kts 79°
2026-04-26 04:51 32.14797 -101.06576 40664 ft 555 kts 79°
2026-04-26 04:51 32.15846 -100.97552 40676 ft 555 kts 79°
2026-04-26 04:52 32.16888 -100.88521 40676 ft 555 kts 79°
2026-04-26 04:52 32.17924 -100.79483 40675 ft 556 kts 79°
2026-04-26 04:53 32.18955 -100.70436 40667 ft 556 kts 79°
2026-04-26 04:53 32.19980 -100.61377 40669 ft 557 kts 79°
2026-04-26 04:54 32.20999 -100.52318 40672 ft 556 kts 79°
2026-04-26 04:54 32.22006 -100.43289 40673 ft 554 kts 79°
2026-04-26 04:55 32.23005 -100.34284 40672 ft 552 kts 79°
2026-04-26 04:55 32.23996 -100.25300 40675 ft 551 kts 79°
2026-04-26 04:56 32.24979 -100.16327 40659 ft 550 kts 79°
2026-04-26 04:56 32.25952 -100.07385 40669 ft 549 kts 79°
2026-04-26 04:57 32.26918 -99.98453 40679 ft 548 kts 79°
2026-04-26 04:57 32.27880 -99.89514 40679 ft 548 kts 79°
2026-04-26 04:58 32.28572 -99.80529 40682 ft 550 kts 84°
2026-04-26 04:58 32.28783 -99.75990 40132 ft 557 kts 85°
2026-04-26 04:58 32.28972 -99.71404 39528 ft 558 kts 85°
2026-04-26 04:59 32.29164 -99.66832 38991 ft 556 kts 85°
2026-04-26 04:59 32.29370 -99.62288 38630 ft 551 kts 85°
2026-04-26 04:59 32.29588 -99.57793 38230 ft 546 kts 84°
2026-04-26 04:59 32.29815 -99.53331 37793 ft 542 kts 84°
2026-04-26 05:00 32.30044 -99.48909 37398 ft 536 kts 85°
2026-04-26 05:00 32.30268 -99.44535 37013 ft 530 kts 85°
2026-04-26 05:00 32.30486 -99.40264 36671 ft 525 kts 85°
2026-04-26 05:00 32.30704 -99.35920 36297 ft 520 kts 85°
2026-04-26 05:01 32.30915 -99.31674 35918 ft 515 kts 85°
2026-04-26 05:01 32.31053 -99.28882 35689 ft 512 kts 85°
2026-04-26 05:01 32.31323 -99.23350 35202 ft 506 kts 85°
2026-04-26 05:01 32.31524 -99.19210 34814 ft 503 kts 85°
2026-04-26 05:02 32.31722 -99.15098 34419 ft 500 kts 85°
2026-04-26 05:02 32.31918 -99.11011 34039 ft 497 kts 86°
2026-04-26 05:02 32.32050 -99.08265 33783 ft 495 kts 85°
2026-04-26 05:02 32.32240 -99.04270 33340 ft 492 kts 85°
2026-04-26 05:03 32.32429 -99.00247 32915 ft 489 kts 86°
2026-04-26 05:03 32.32616 -98.96250 32510 ft 485 kts 86°
2026-04-26 05:03 32.32801 -98.92284 32102 ft 481 kts 86°
2026-04-26 05:03 32.32986 -98.88346 31716 ft 478 kts 86°
2026-04-26 05:04 32.33169 -98.84440 31325 ft 474 kts 86°
2026-04-26 05:04 32.33350 -98.80561 30942 ft 471 kts 86°
2026-04-26 05:04 32.33528 -98.76710 30563 ft 468 kts 86°
2026-04-26 05:04 32.33704 -98.72889 30187 ft 465 kts 86°
2026-04-26 05:05 32.33879 -98.69085 29833 ft 462 kts 85°
2026-04-26 05:05 32.34052 -98.65307 29369 ft 459 kts 85°
2026-04-26 05:05 32.34220 -98.61559 28941 ft 454 kts 85°
2026-04-26 05:05 32.34386 -98.57846 28568 ft 450 kts 85°
2026-04-26 05:06 32.34548 -98.54170 28144 ft 445 kts 85°
2026-04-26 05:06 32.34707 -98.50536 27744 ft 441 kts 85°
2026-04-26 05:06 32.34865 -98.46931 27337 ft 437 kts 85°
2026-04-26 05:06 32.35021 -98.43366 26927 ft 433 kts 85°
2026-04-26 05:07 32.35175 -98.39829 26541 ft 429 kts 85°
2026-04-26 05:07 32.35327 -98.36322 26156 ft 425 kts 85°
2026-04-26 05:07 32.35476 -98.32846 25801 ft 422 kts 85°
2026-04-26 05:07 32.35622 -98.29393 25407 ft 419 kts 85°
2026-04-26 05:08 32.35764 -98.25963 25031 ft 416 kts 85°
2026-04-26 05:08 32.35902 -98.22557 24664 ft 413 kts 85°
2026-04-26 05:08 32.36039 -98.19176 24299 ft 410 kts 85°
2026-04-26 05:08 32.36174 -98.15812 23924 ft 408 kts 85°
2026-04-26 05:09 32.36307 -98.12514 23564 ft 406 kts 85°
2026-04-26 05:09 32.36443 -98.09141 23170 ft 404 kts 85°
2026-04-26 05:09 32.36573 -98.05888 22769 ft 401 kts 85°
2026-04-26 05:09 32.36704 -98.02597 22394 ft 397 kts 85°
2026-04-26 05:10 32.36832 -97.99350 22028 ft 394 kts 85°
2026-04-26 05:10 32.36959 -97.96124 21685 ft 390 kts 86°
2026-04-26 05:10 32.37083 -97.92931 21316 ft 387 kts 86°
2026-04-26 05:10 32.37205 -97.89761 20959 ft 384 kts 86°
2026-04-26 05:11 32.37327 -97.86625 20586 ft 381 kts 85°
2026-04-26 05:11 32.37450 -97.83507 20248 ft 378 kts 85°
2026-04-26 05:11 32.37570 -97.80419 19907 ft 375 kts 85°
2026-04-26 05:11 32.37690 -97.77352 19560 ft 372 kts 86°
2026-04-26 05:12 32.37808 -97.74306 19212 ft 370 kts 86°
2026-04-26 05:12 32.37925 -97.71276 18863 ft 367 kts 86°
2026-04-26 05:12 32.38039 -97.68268 18520 ft 365 kts 86°
2026-04-26 05:12 32.38162 -97.65282 18155 ft 359 kts 83°
2026-04-26 05:13 32.38795 -97.62489 17761 ft 348 kts 60°
2026-04-26 05:13 32.40166 -97.60193 17401 ft 339 kts 41°
2026-04-26 05:13 32.41852 -97.58283 17121 ft 332 kts 38°
2026-04-26 05:13 32.43526 -97.56423 16884 ft 330 kts 38°
2026-04-26 05:14 32.45204 -97.54546 16642 ft 334 kts 39°
2026-04-26 05:14 32.46898 -97.52631 16535 ft 338 kts 39°
2026-04-26 05:14 32.48595 -97.50701 16263 ft 339 kts 39°
2026-04-26 05:14 32.50292 -97.48764 15891 ft 339 kts 40°
2026-04-26 05:15 32.51991 -97.46824 15627 ft 339 kts 40°
2026-04-26 05:15 32.53685 -97.44888 15334 ft 337 kts 40°
2026-04-26 05:15 32.55365 -97.42965 15067 ft 335 kts 40°
2026-04-26 05:15 32.57027 -97.41061 14827 ft 330 kts 40°
2026-04-26 05:16 32.58672 -97.39177 14507 ft 327 kts 40°
2026-04-26 05:16 32.60303 -97.37308 14176 ft 325 kts 40°
2026-04-26 05:16 32.61927 -97.35448 13832 ft 324 kts 40°
2026-04-26 05:16 32.63546 -97.33592 13467 ft 323 kts 41°
2026-04-26 05:17 32.65149 -97.31751 13204 ft 318 kts 41°
2026-04-26 05:17 32.66714 -97.29952 13026 ft 309 kts 40°
2026-04-26 05:17 32.68241 -97.28196 12895 ft 304 kts 40°
2026-04-26 05:17 32.69771 -97.26441 12758 ft 309 kts 40°
2026-04-26 05:18 32.71328 -97.24655 12601 ft 313 kts 40°
2026-04-26 05:18 32.72892 -97.22856 12482 ft 312 kts 40°
2026-04-26 05:18 32.74426 -97.21088 12324 ft 303 kts 40°
2026-04-26 05:18 32.75917 -97.19369 12182 ft 295 kts 40°
2026-04-26 05:19 32.77361 -97.17754 12026 ft 280 kts 32°
2026-04-26 05:19 32.79042 -97.16831 11882 ft 260 kts
2026-04-26 05:19 32.80813 -97.16680 11651 ft 253 kts 355°
2026-04-26 05:19 32.82570 -97.16662 11443 ft 253 kts 355°
2026-04-26 05:20 32.84330 -97.16650 11220 ft 253 kts 355°
2026-04-26 05:20 32.86092 -97.16639 11004 ft 254 kts 355°
2026-04-26 05:20 32.87858 -97.16626 10788 ft 253 kts 355°
2026-04-26 05:20 32.89619 -97.16611 10562 ft 253 kts 355°
2026-04-26 05:21 32.91379 -97.16594 10317 ft 253 kts 355°
2026-04-26 05:21 32.93134 -97.16576 10120 ft 251 kts 356°
2026-04-26 05:21 32.94878 -97.16557 9893 ft 250 kts 356°
2026-04-26 05:21 32.96615 -97.16536 9684 ft 249 kts 354°
2026-04-26 05:22 32.98338 -97.16515 9444 ft 247 kts 353°
2026-04-26 05:22 33.00053 -97.16497 9210 ft 246 kts 354°
2026-04-26 05:22 33.01757 -97.16478 8990 ft 244 kts 354°
2026-04-26 05:22 33.03449 -97.16458 8776 ft 243 kts 354°
2026-04-26 05:23 33.05141 -97.16438 8562 ft 243 kts 354°
2026-04-26 05:23 33.06839 -97.16419 8351 ft 244 kts 354°
2026-04-26 05:23 33.08544 -97.16402 8137 ft 246 kts 354°
2026-04-26 05:23 33.10263 -97.16383 7917 ft 248 kts 354°
2026-04-26 05:24 33.11996 -97.16363 7714 ft 250 kts 355°
2026-04-26 05:24 33.13740 -97.16343 7487 ft 251 kts 354°
2026-04-26 05:24 33.15496 -97.16324 7259 ft 253 kts 354°
2026-04-26 05:24 33.17258 -97.16304 7047 ft 253 kts 356°
2026-04-26 05:25 33.19022 -97.16282 6817 ft 253 kts 355°
2026-04-26 05:25 33.20776 -97.16126 6521 ft 256 kts 13°
2026-04-26 05:25 33.22307 -97.15027 6253 ft 262 kts 47°
2026-04-26 05:25 33.23186 -97.13154 6033 ft 260 kts 79°
2026-04-26 05:26 33.23244 -97.11047 5799 ft 251 kts 108°
2026-04-26 05:26 33.22603 -97.09182 5546 ft 236 kts 134°
2026-04-26 05:26 33.21586 -97.07715 5355 ft 227 kts 137°
2026-04-26 05:26 33.20548 -97.06311 5139 ft 221 kts 146°
2026-04-26 05:27 33.19222 -97.05529 4880 ft 210 kts 176°
2026-04-26 05:27 33.17763 -97.05406 4612 ft 211 kts 182°
2026-04-26 05:27 33.16317 -97.05360 4551 ft 206 kts 183°
2026-04-26 05:27 33.14898 -97.05349 4448 ft 203 kts 184°
2026-04-26 05:28 33.13494 -97.05352 4272 ft 202 kts 184°
2026-04-26 05:28 33.12088 -97.05360 4120 ft 200 kts 184°
2026-04-26 05:28 33.10733 -97.05367 4040 ft 189 kts 183°
2026-04-26 05:28 33.09464 -97.05372 3978 ft 178 kts 182°
2026-04-26 05:29 33.08231 -97.05380 3732 ft 176 kts 182°
2026-04-26 05:29 33.07016 -97.05387 3506 ft 173 kts 181°
2026-04-26 05:29 33.05819 -97.05393 3302 ft 171 kts 181°
2026-04-26 05:29 33.04635 -97.05399 3099 ft 169 kts 181°
2026-04-26 05:30 33.03484 -97.05406 2867 ft 165 kts 180°
2026-04-26 05:30 33.02388 -97.05412 2680 ft 149 kts 179°
2026-04-26 05:30 33.01407 -97.05417 2477 ft 135 kts 178°
2026-04-26 05:30 33.00507 -97.05422 2324 ft 129 kts 176°
2026-04-26 05:31 32.99520 -97.05424 2167 ft 150 kts 174°
2026-04-26 05:31 32.98530 -97.05433 1955 ft 135 kts 172°
2026-04-26 05:31 32.97579 -97.05433 1800 ft 143 kts 173°
2026-04-26 05:31 32.96573 -97.05435 1606 ft 146 kts 171°
2026-04-26 05:32 32.95578 -97.05450 1412 ft 140 kts 172°
2026-04-26 05:32 32.94569 -97.05435 1225 ft 147 kts 176°
2026-04-26 05:32 32.93594 -97.05451 1006 ft 137 kts 180°
2026-04-26 05:32 32.92595 -97.05456 877 ft 151 kts 180°
2026-04-26 05:33 32.91601 -97.05467 676 ft 134 kts 179°
2026-04-26 05:33 32.90733 -97.05468 624 ft 110 kts 180°
2026-04-26 05:33 32.90124 -97.05471 616 ft 65 kts 179°
2026-04-26 05:33 32.89825 -97.05470 627 ft 36 kts 179°
2026-04-26 05:34 32.89601 -97.05411 616 ft 24 kts 154°
2026-04-26 05:34 32.89537 -97.05370 621 ft 8 kts 152°
2026-04-26 05:34 32.89530 -97.05366 618 ft 1 kts 152°
2026-04-26 05:34 32.89504 -97.05349 620 ft 8 kts 152°
2026-04-26 05:35 32.89428 -97.05298 617 ft 16 kts 147°
2026-04-26 05:35 32.89402 -97.05180 601 ft 16 kts 89°
2026-04-26 05:35 32.89401 -97.05050 603 ft 16 kts 91°
2026-04-26 05:35 32.89399 -97.04921 603 ft 16 kts 89°
2026-04-26 05:36 32.89404 -97.04792 599 ft 16 kts 73°
2026-04-26 05:36 32.89500 -97.04762 600 ft 16 kts 355°
2026-04-26 05:36 32.89583 -97.04748 602 ft 8 kts 57°
2026-04-26 05:36 32.89579 -97.04679 602 ft 8 kts 84°
2026-04-26 05:37 32.89593 -97.04612 602 ft 8 kts 75°
2026-04-26 05:37 32.89594 -97.04569 602 ft 0 kts 90°